QPF
0.00 0.00 0.00 0.00 0.00 0.00 0.00 0.00 0.00 0.00 0.01 0.01 0.01 0.01 0.01 0.01 0.01 0.01 0.02 0.02 0.02 0.04 0.05 0.05 0.04 0.04 0.04 0.04 0.02 0.02 0.02 0.02 0.02 0.02 0.04 0.06 0.08 0.10 0.10 0.09 0.09 0.08 0.07 0.05
0.00 0.00 0.00 0.00 0.00 0.00 0.00 0.00 0.00 0.00 0.00 0.01 0.01 0.01 0.01 0.01 0.01 0.01 0.02 0.02 0.02 0.02 0.03 0.03 0.03 0.03 0.02 0.02 0.01 0.01 0.01 0.01 0.01 0.01 0.02 0.04 0.05 0.07 0.07 0.07 0.08 0.09 0.10 0.08
0.01 0.01 0.01 0.01 0.00 0.00 0.00 0.00 0.00 0.00 0.00 0.00 0.01 0.01 0.01 0.01 0.01 0.02 0.03 0.03 0.03 0.02 0.02 0.02 0.02 0.02 0.01 0.01 0.01 0.01 0.01 0.01 0.01 0.01 0.01 0.02 0.03 0.03 0.04 0.03 0.04 0.05 0.06 0.06
0.02 0.02 0.01 0.01 0.01 0.01 0.00 0.00 0.00 0.00 0.00 0.00 0.01 0.01 0.01 0.01 0.01 0.02 0.02 0.03 0.02 0.02 0.02 0.03 0.03 0.03 0.02 0.01 0.01 0.01 0.01 0.01 0.01 0.01 0.01 0.01 0.02 0.02 0.02 0.03 0.03 0.04 0.04 0.04
0.03 0.03 0.01 0.01 0.01 0.01 0.01 0.01 0.01 0.00 0.00 0.01 0.01 0.01 0.02 0.02 0.02 0.02 0.02 0.02 0.02 0.02 0.02 0.02 0.03 0.02 0.01 0.01 0.01 0.01 0.01 0.01 0.01 0.01 0.01 0.01 0.01 0.01 0.02 0.03 0.03 0.03 0.03 0.04
0.03 0.03 0.01 0.01 0.01 0.01 0.01 0.01 0.01 0.01 0.01 0.01 0.01 0.01 0.02 0.02 0.02 0.02 0.02 0.03 0.04 0.04 0.03 0.03 0.03 0.03 0.02 0.02 0.02 0.01 0.01 0.01 0.01 0.01 0.01 0.01 0.02 0.02 0.02 0.03 0.04 0.04 0.03 0.03
0.04 0.02 0.01 0.01 0.00 0.01 0.02 0.01 0.00 0.01 0.01 0.02 0.02 0.02 0.01 0.01 0.01 0.01 0.02 0.02 0.02 0.02 0.02 0.03 0.04 0.04 0.03 0.02 0.02 0.01 0.01 0.00 0.00 0.01 0.02 0.02 0.02 0.03 0.03 0.03 0.04 0.05 0.04 0.03
0.03 0.02 0.02 0.01 0.01 0.02 0.02 0.01 0.00 0.00 0.00 0.01 0.01 0.01 0.01 0.01 0.01 0.01 0.01 0.02 0.01 0.01 0.01 0.02 0.03 0.04 0.03 0.03 0.02 0.02 0.01 0.01 0.01 0.01 0.02 0.03 0.03 0.03 0.03 0.04 0.04 0.04 0.04 0.04
0.01 0.01 0.01 0.01 0.01 0.01 0.01 0.01 0.01 0.01 0.01 0.01 0.01 0.01 0.01 0.01 0.01 0.01 0.01 0.01 0.01 0.01 0.01 0.01 0.02 0.02 0.01 0.02 0.02 0.03 0.02 0.02 0.01 0.02 0.02 0.04 0.05 0.04 0.04 0.04 0.05 0.05 0.04 0.03
0.01 0.01 0.01 0.01 0.01 0.01 0.01 0.01 0.01 0.01 0.01 0.01 0.01 0.01 0.01 0.01 0.01 0.01 0.02 0.02 0.01 0.01 0.01 0.01 0.02 0.01 0.01 0.01 0.01 0.02 0.02 0.02 0.02 0.02 0.02 0.04 0.06 0.06 0.05 0.05 0.05 0.05 0.05 0.05
0.02 0.02 0.02 0.02 0.02 0.02 0.01 0.02 0.02 0.02 0.02 0.01 0.00 0.00 0.00 0.01 0.01 0.02 0.03 0.02 0.01 0.01 0.01 0.01 0.02 0.02 0.02 0.01 0.01 0.02 0.03 0.03 0.03 0.03 0.03 0.04 0.06 0.08 0.08 0.07 0.07 0.06 0.06 0.06
0.03 0.03 0.03 0.04 0.04 0.04 0.03 0.03 0.03 0.02 0.02 0.02 0.01 0.01 0.00 0.01 0.01 0.02 0.03 0.02 0.01 0.01 0.01 0.01 0.01 0.01 0.01 0.01 0.01 0.02 0.03 0.03 0.04 0.04 0.04 0.04 0.05 0.08 0.09 0.09 0.07 0.05 0.05 0.04
0.06 0.05 0.05 0.06 0.04 0.04 0.04 0.03 0.03 0.03 0.03 0.02 0.01 0.01 0.01 0.01 0.01 0.02 0.02 0.01 0.01 0.01 0.01 0.01 0.01 0.01 0.01 0.01 0.01 0.02 0.02 0.03 0.03 0.04 0.05 0.06 0.05 0.05 0.05 0.06 0.05 0.05 0.05 0.04
0.07 0.08 0.08 0.05 0.03 0.02 0.03 0.03 0.03 0.03 0.03 0.02 0.02 0.01 0.00 0.00 0.01 0.01 0.01 0.01 0.01 0.01 0.01 0.01 0.01 0.02 0.01 0.01 0.01 0.01 0.01 0.01 0.01 0.02 0.03 0.05 0.07 0.05 0.04 0.04 0.03 0.03 0.03 0.03
0.07 0.08 0.07 0.04 0.03 0.02 0.03 0.03 0.02 0.02 0.02 0.02 0.02 0.02 0.01 0.01 0.00 0.00 0.01 0.00 0.01 0.01 0.01 0.01 0.02 0.02 0.01 0.01 0.01 0.01 0.01 0.01 0.01 0.01 0.01 0.03 0.06 0.06 0.05 0.04 0.03 0.03 0.03 0.03
0.06 0.07 0.06 0.05 0.03 0.02 0.02 0.02 0.02 0.02 0.02 0.02 0.01 0.01 0.01 0.01 0.01 0.01 0.00 0.00 0.01 0.01 0.01 0.01 0.02 0.02 0.01 0.01 0.01 0.01 0.01 0.01 0.01 0.01 0.01 0.01 0.03 0.05 0.04 0.05 0.05 0.04 0.03 0.02
0.07 0.07 0.05 0.05 0.04 0.03 0.02 0.02 0.01 0.01 0.01 0.01 0.01 0.01 0.01 0.01 0.01 0.01 0.00 0.00 0.00 0.01 0.01 0.02 0.02 0.01 0.01 0.01 0.02 0.01 0.01 0.00 0.00 0.01 0.01 0.01 0.01 0.02 0.02 0.03 0.04 0.03 0.03 0.02
0.05 0.05 0.04 0.04 0.03 0.03 0.02 0.02 0.01 0.01 0.01 0.01 0.01 0.01 0.01 0.01 0.01 0.01 0.01 0.01 0.01 0.01 0.01 0.02 0.02 0.01 0.01 0.01 0.01 0.01 0.00 0.00 0.00 0.01 0.01 0.01 0.01 0.01 0.01 0.01 0.02 0.02 0.02 0.01
0.04 0.04 0.02 0.02 0.03 0.03 0.03 0.03 0.02 0.01 0.01 0.01 0.01 0.01 0.01 0.01 0.01 0.01 0.01 0.01 0.01 0.01 0.02 0.01 0.01 0.01 0.01 0.02 0.01 0.01 0.01 0.00 0.00 0.01 0.01 0.01 0.01 0.01 0.02 0.02 0.02 0.02 0.02 0.02
0.03 0.03 0.02 0.03 0.03 0.03 0.03 0.03 0.03 0.02 0.01 0.02 0.02 0.02 0.03 0.02 0.02 0.01 0.02 0.02 0.02 0.01 0.01 0.01 0.01 0.01 0.01 0.01 0.01 0.01 0.01 0.01 0.01 0.01 0.01 0.01 0.02 0.02 0.02 0.03 0.03 0.03 0.03 0.03
0.02 0.02 0.03 0.04 0.03 0.03 0.04 0.04 0.03 0.02 0.02 0.03 0.04 0.04 0.04 0.04 0.03 0.02 0.02 0.02 0.02 0.01 0.01 0.01 0.01 0.01 0.01 0.01 0.01 0.01 0.01 0.01 0.01 0.01 0.01 0.01 0.02 0.02 0.02 0.03 0.03 0.04 0.05 0.05
0.03 0.04 0.05 0.05 0.03 0.03 0.04 0.03 0.02 0.02 0.02 0.03 0.04 0.04 0.04 0.05 0.04 0.03 0.03 0.02 0.02 0.01 0.01 0.01 0.01 0.02 0.02 0.02 0.01 0.01 0.01 0.01 0.01 0.02 0.02 0.02 0.02 0.02 0.03 0.04 0.05 0.06 0.07 0.07
0.05 0.06 0.05 0.03 0.03 0.03 0.03 0.02 0.02 0.02 0.02 0.02 0.04 0.04 0.04 0.04 0.05 0.04 0.02 0.02 0.02 0.02 0.01 0.01 0.01 0.02 0.03 0.03 0.02 0.02 0.02 0.02 0.02 0.02 0.02 0.02 0.03 0.03 0.04 0.05 0.06 0.06 0.06 0.06
0.05 0.04 0.03 0.02 0.02 0.02 0.02 0.01 0.01 0.01 0.01 0.02 0.02 0.03 0.03 0.03 0.03 0.02 0.01 0.01 0.01 0.01 0.01 0.01 0.02 0.02 0.02 0.02 0.02 0.02 0.02 0.02 0.02 0.02 0.02 0.02 0.03 0.03 0.05 0.06 0.06 0.06 0.05 0.05
0.04 0.03 0.02 0.02 0.02 0.02 0.02 0.01 0.01 0.01 0.01 0.01 0.02 0.04 0.03 0.02 0.01 0.01 0.01 0.01 0.01 0.01 0.01 0.02 0.02 0.02 0.01 0.02 0.03 0.03 0.03 0.03 0.02 0.02 0.02 0.02 0.02 0.03 0.04 0.05 0.05 0.06 0.06 0.06
0.03 0.04 0.03 0.03 0.03 0.03 0.02 0.02 0.02 0.01 0.01 0.01 0.03 0.04 0.02 0.01 0.01 0.01 0.01 0.01 0.01 0.01 0.01 0.01 0.02 0.02 0.02 0.03 0.03 0.03 0.03 0.02 0.02 0.02 0.03 0.03 0.02 0.03 0.04 0.05 0.05 0.05 0.06 0.06
0.04 0.04 0.04 0.04 0.04 0.03 0.03 0.03 0.02 0.02 0.01 0.02 0.03 0.03 0.02 0.01 0.01 0.01 0.01 0.01 0.01 0.01 0.01 0.01 0.02 0.02 0.02 0.02 0.02 0.02 0.02 0.02 0.02 0.02 0.02 0.03 0.03 0.03 0.03 0.04 0.05 0.05 0.06 0.06
MSLP
1002.65 1002.10 1001.69 1001.41 1001.24 1001.12 1001.02 1000.88 1000.67 1000.39 1000.06 999.73 999.45 999.30 999.30 999.49 999.87 1000.41 1001.05 1001.75 1002.43 1003.04 1003.55 1003.96 1004.28 1004.53 1004.76 1004.98 1005.22 1005.49 1005.78 1006.06 1006.30 1006.48 1006.58 1006.61 1006.57 1006.50 1006.43 1006.39 1006.41 1006.51 1006.69 1006.93
1002.24 1001.78 1001.45 1001.24 1001.14 1001.09 1001.05 1000.98 1000.85 1000.65 1000.42 1000.18 999.99 999.90 999.96 1000.17 1000.56 1001.08 1001.69 1002.35 1002.99 1003.57 1004.06 1004.47 1004.79 1005.05 1005.29 1005.52 1005.75 1006.00 1006.24 1006.45 1006.62 1006.72 1006.74 1006.69 1006.59 1006.48 1006.39 1006.35 1006.40 1006.53 1006.76 1007.05
1002.09 1001.74 1001.50 1001.38 1001.34 1001.35 1001.36 1001.33 1001.25 1001.11 1000.94 1000.76 1000.63 1000.59 1000.68 1000.92 1001.29 1001.79 1002.36 1002.97 1003.57 1004.12 1004.59 1004.99 1005.32 1005.60 1005.86 1006.10 1006.34 1006.57 1006.78 1006.95 1007.05 1007.07 1007.02 1006.91 1006.76 1006.61 1006.51 1006.48 1006.55 1006.72 1006.99 1007.31
1002.23 1001.99 1001.84 1001.79 1001.79 1001.83 1001.86 1001.84 1001.79 1001.68 1001.54 1001.41 1001.34 1001.35 1001.47 1001.72 1002.10 1002.58 1003.13 1003.70 1004.26 1004.77 1005.23 1005.62 1005.96 1006.26 1006.54 1006.81 1007.06 1007.30 1007.49 1007.62 1007.68 1007.65 1007.55 1007.38 1007.19 1007.02 1006.91 1006.88 1006.97 1007.17 1007.45 1007.79
1002.66 1002.50 1002.42 1002.40 1002.41 1002.45 1002.46 1002.44 1002.38 1002.28 1002.18 1002.10 1002.08 1002.15 1002.33 1002.63 1003.03 1003.51 1004.05 1004.60 1005.13 1005.61 1006.05 1006.44 1006.78 1007.10 1007.40 1007.70 1007.97 1008.21 1008.41 1008.53 1008.56 1008.51 1008.37 1008.17 1007.96 1007.78 1007.66 1007.64 1007.73 1007.93 1008.21 1008.53
1003.31 1003.19 1003.13 1003.12 1003.12 1003.12 1003.11 1003.06 1002.99 1002.91 1002.85 1002.83 1002.88 1003.04 1003.30 1003.66 1004.11 1004.63 1005.17 1005.71 1006.22 1006.68 1007.10 1007.47 1007.81 1008.13 1008.45 1008.76 1009.06 1009.32 1009.53 1009.66 1009.69 1009.63 1009.49 1009.29 1009.08 1008.89 1008.77 1008.75 1008.83 1009.01 1009.26 1009.52
1004.07 1003.98 1003.92 1003.89 1003.86 1003.83 1003.78 1003.71 1003.65 1003.59 1003.58 1003.64 1003.79 1004.05 1004.42 1004.87 1005.39 1005.95 1006.52 1007.05 1007.54 1007.97 1008.35 1008.70 1009.01 1009.33 1009.64 1009.96 1010.28 1010.56 1010.79 1010.94 1011.00 1010.96 1010.84 1010.66 1010.46 1010.28 1010.17 1010.14 1010.21 1010.35 1010.54 1010.73
1004.87 1004.78 1004.72 1004.67 1004.62 1004.56 1004.50 1004.43 1004.39 1004.38 1004.45 1004.60 1004.87 1005.25 1005.72 1006.27 1006.87 1007.47 1008.05 1008.58 1009.04 1009.43 1009.76 1010.05 1010.33 1010.61 1010.91 1011.22 1011.53 1011.83 1012.08 1012.26 1012.35 1012.35 1012.27 1012.13 1011.97 1011.82 1011.72 1011.68 1011.72 1011.82 1011.94 1012.05
1005.66 1005.58 1005.52 1005.47 1005.42 1005.36 1005.31 1005.28 1005.28 1005.35 1005.51 1005.77 1006.15 1006.64 1007.21 1007.84 1008.50 1009.14 1009.72 1010.22 1010.63 1010.96 1011.22 1011.44 1011.65 1011.88 1012.13 1012.41 1012.72 1013.01 1013.28 1013.49 1013.62 1013.67 1013.64 1013.55 1013.43 1013.31 1013.23 1013.20 1013.22 1013.27 1013.33 1013.36
1006.44 1006.39 1006.36 1006.34 1006.32 1006.30 1006.29 1006.31 1006.38 1006.53 1006.78 1007.14 1007.62 1008.20 1008.85 1009.53 1010.21 1010.85 1011.41 1011.86 1012.20 1012.45 1012.63 1012.77 1012.89 1013.04 1013.23 1013.46 1013.73 1014.01 1014.28 1014.51 1014.67 1014.76 1014.78 1014.74 1014.67 1014.60 1014.54 1014.52 1014.52 1014.55 1014.56 1014.52
1007.27 1007.27 1007.29 1007.32 1007.36 1007.40 1007.46 1007.55 1007.71 1007.94 1008.26 1008.70 1009.24 1009.86 1010.54 1011.24 1011.91 1012.51 1013.02 1013.40 1013.66 1013.82 1013.90 1013.94 1013.98 1014.04 1014.15 1014.32 1014.53 1014.78 1015.02 1015.25 1015.42 1015.54 1015.60 1015.61 1015.58 1015.55 1015.52 1015.51 1015.52 1015.53 1015.51 1015.44
1008.21 1008.27 1008.36 1008.46 1008.57 1008.69 1008.82 1008.99 1009.21 1009.50 1009.88 1010.35 1010.90 1011.53 1012.20 1012.86 1013.48 1014.02 1014.45 1014.75 1014.93 1015.00 1014.99 1014.94 1014.89 1014.86 1014.89 1014.98 1015.13 1015.32 1015.52 1015.71 1015.88 1016.00 1016.08 1016.12 1016.13 1016.13 1016.13 1016.14 1016.16 1016.17 1016.15 1016.07
1009.32 1009.44 1009.59 1009.76 1009.93 1010.12 1010.31 1010.53 1010.79 1011.11 1011.50 1011.97 1012.50 1013.08 1013.69 1014.29 1014.83 1015.29 1015.64 1015.87 1015.97 1015.97 1015.89 1015.77 1015.65 1015.55 1015.51 1015.52 1015.59 1015.71 1015.85 1015.99 1016.13 1016.24 1016.31 1016.36 1016.39 1016.41 1016.43 1016.46 1016.50 1016.52 1016.51 1016.45
1010.59 1010.75 1010.94 1011.15 1011.37 1011.59 1011.82 1012.07 1012.34 1012.66 1013.02 1013.45 1013.92 1014.43 1014.96 1015.47 1015.92 1016.30 1016.59 1016.75 1016.81 1016.76 1016.65 1016.49 1016.33 1016.18 1016.07 1016.02 1016.01 1016.06 1016.13 1016.21 1016.29 1016.36 1016.42 1016.46 1016.49 1016.52 1016.56 1016.60 1016.65 1016.69 1016.70 1016.66
1011.96 1012.13 1012.33 1012.55 1012.78 1013.01 1013.24 1013.48 1013.74 1014.02 1014.34 1014.70 1015.10 1015.52 1015.96 1016.38 1016.76 1017.08 1017.31 1017.45 1017.49 1017.44 1017.33 1017.17 1016.99 1016.82 1016.67 1016.57 1016.50 1016.47 1016.47 1016.49 1016.51 1016.53 1016.55 1016.57 1016.59 1016.62 1016.66 1016.72 1016.78 1016.83 1016.85 1016.83
1013.33 1013.47 1013.65 1013.85 1014.06 1014.27 1014.48 1014.69 1014.91 1015.15 1015.40 1015.69 1016.01 1016.36 1016.72 1017.07 1017.40 1017.67 1017.89 1018.03 1018.08 1018.06 1017.98 1017.85 1017.69 1017.52 1017.37 1017.23 1017.11 1017.03 1016.96 1016.92 1016.88 1016.86 1016.84 1016.83 1016.84 1016.86 1016.90 1016.95 1017.00 1017.05 1017.08 1017.07
1014.59 1014.68 1014.81 1014.96 1015.12 1015.30 1015.47 1015.65 1015.83 1016.02 1016.23 1016.46 1016.72 1017.01 1017.31 1017.62 1017.91 1018.18 1018.40 1018.56 1018.66 1018.69 1018.66 1018.58 1018.46 1018.32 1018.17 1018.02 1017.88 1017.75 1017.64 1017.55 1017.47 1017.40 1017.35 1017.32 1017.31 1017.32 1017.34 1017.37 1017.41 1017.44 1017.45 1017.43
1015.64 1015.67 1015.74 1015.83 1015.95 1016.09 1016.24 1016.39 1016.54 1016.71 1016.89 1017.09 1017.31 1017.56 1017.83 1018.12 1018.40 1018.67 1018.91 1019.11 1019.26 1019.35 1019.38 1019.35 1019.29 1019.18 1019.05 1018.91 1018.76 1018.61 1018.47 1018.35 1018.24 1018.16 1018.09 1018.04 1018.01 1018.00 1018.00 1018.02 1018.02 1018.02 1017.99 1017.93
1016.42 1016.40 1016.42 1016.48 1016.57 1016.69 1016.82 1016.97 1017.13 1017.29 1017.47 1017.67 1017.88 1018.12 1018.38 1018.66 1018.94 1019.22 1019.48 1019.72 1019.90 1020.04 1020.12 1020.15 1020.12 1020.05 1019.95 1019.82 1019.67 1019.53 1019.38 1019.25 1019.14 1019.04 1018.97 1018.91 1018.88 1018.85 1018.83 1018.81 1018.77 1018.72 1018.64 1018.53
1016.95 1016.90 1016.90 1016.95 1017.04 1017.17 1017.33 1017.50 1017.68 1017.87 1018.07 1018.28 1018.51 1018.75 1019.01 1019.28 1019.56 1019.84 1020.11 1020.36 1020.57 1020.73 1020.84 1020.90 1020.91 1020.86 1020.78 1020.67 1020.53 1020.40 1020.26 1020.14 1020.03 1019.94 1019.88 1019.82 1019.78 1019.74 1019.70 1019.64 1019.56 1019.45 1019.31 1019.13
1017.28 1017.24 1017.26 1017.33 1017.46 1017.63 1017.83 1018.05 1018.28 1018.51 1018.74 1018.98 1019.22 1019.47 1019.72 1019.98 1020.25 1020.51 1020.77 1021.00 1021.20 1021.37 1021.48 1021.55 1021.56 1021.53 1021.46 1021.36 1021.25 1021.13 1021.01 1020.90 1020.81 1020.74 1020.68 1020.63 1020.59 1020.54 1020.47 1020.37 1020.25 1020.09 1019.88 1019.65
1017.49 1017.50 1017.56 1017.69 1017.88 1018.11 1018.37 1018.65 1018.93 1019.21 1019.48 1019.74 1019.98 1020.23 1020.46 1020.69 1020.93 1021.15 1021.37 1021.57 1021.74 1021.88 1021.97 1022.03 1022.04 1022.01 1021.95 1021.86 1021.76 1021.65 1021.55 1021.46 1021.39 1021.33 1021.28 1021.24 1021.19 1021.13 1021.04 1020.92 1020.75 1020.55 1020.30 1020.01
1017.64 1017.72 1017.86 1018.06 1018.32 1018.62 1018.94 1019.28 1019.61 1019.93 1020.22 1020.48 1020.72 1020.94 1021.14 1021.33 1021.51 1021.68 1021.84 1021.99 1022.11 1022.21 1022.27 1022.30 1022.30 1022.26 1022.20 1022.11 1022.02 1021.93 1021.84 1021.77 1021.71 1021.66 1021.62 1021.58 1021.53 1021.46 1021.35 1021.21 1021.02 1020.79 1020.51 1020.20
1017.78 1017.93 1018.15 1018.43 1018.76 1019.12 1019.50 1019.88 1020.24 1020.57 1020.87 1021.12 1021.33 1021.51 1021.66 1021.79 1021.91 1022.02 1022.12 1022.21 1022.28 1022.33 1022.36 1022.37 1022.34 1022.30 1022.23 1022.14 1022.05 1021.97 1021.88 1021.82 1021.76 1021.72 1021.68 1021.64 1021.58 1021.51 1021.40 1021.24 1021.05 1020.81 1020.54 1020.23
1017.90 1018.14 1018.43 1018.77 1019.16 1019.56 1019.98 1020.37 1020.74 1021.06 1021.33 1021.55 1021.72 1021.85 1021.95 1022.02 1022.08 1022.13 1022.17 1022.21 1022.23 1022.25 1022.25 1022.24 1022.20 1022.14 1022.07 1021.98 1021.89 1021.79 1021.71 1021.64 1021.58 1021.53 1021.49 1021.45 1021.39 1021.32 1021.21 1021.07 1020.89 1020.68 1020.43 1020.16
1017.99 1018.28 1018.63 1019.02 1019.44 1019.87 1020.29 1020.68 1021.03 1021.33 1021.56 1021.74 1021.86 1021.94 1021.98 1022.00 1022.00 1022.01 1022.01 1022.01 1022.01 1022.01 1021.99 1021.96 1021.91 1021.85 1021.77 1021.67 1021.57 1021.47 1021.37 1021.29 1021.22 1021.16 1021.11 1021.07 1021.02 1020.96 1020.87 1020.76 1020.63 1020.46 1020.26 1020.05
1018.00 1018.33 1018.71 1019.12 1019.56 1019.99 1020.40 1020.77 1021.09 1021.35 1021.54 1021.67 1021.75 1021.78 1021.79 1021.77 1021.74 1021.72 1021.70 1021.68 1021.67 1021.66 1021.64 1021.60 1021.55 1021.47 1021.38 1021.28 1021.16 1021.04 1020.93 1020.83 1020.74 1020.67 1020.62 1020.58 1020.55 1020.51 1020.47 1020.41 1020.33 1020.23 1020.11 1019.96
Thickness
5712 5718 5719 5716 5717 5719 5718 5720 5717 5721 5720 5725 5728 5729 5727 5726 5725 5723 5720 5718 5716 5715 5713 5712 5711 5710 5709 5708 5707 5706 5704 5703 5701 5700 5699 5699 5698 5697 5696 5695 5695 5693 5692 5691
5698 5706 5708 5706 5709 5711 5711 5713 5714 5713 5712 5723 5724 5723 5719 5716 5715 5713 5712 5711 5710 5708 5706 5704 5703 5702 5701 5700 5699 5697 5696 5695 5694 5693 5693 5691 5691 5690 5689 5689 5689 5687 5686 5685
5688 5697 5693 5691 5703 5705 5705 5708 5705 5702 5707 5713 5711 5709 5708 5707 5706 5704 5703 5703 5701 5700 5698 5696 5696 5695 5694 5694 5692 5689 5688 5687 5686 5685 5684 5683 5683 5682 5681 5681 5680 5680 5680 5680
5683 5678 5665 5691 5704 5704 5698 5697 5700 5700 5702 5702 5701 5702 5701 5700 5699 5696 5695 5693 5692 5691 5690 5689 5689 5687 5687 5686 5684 5681 5680 5679 5678 5677 5676 5675 5673 5672 5672 5672 5672 5672 5672 5672
5674 5671 5677 5683 5689 5690 5685 5683 5689 5689 5690 5691 5694 5694 5691 5692 5691 5689 5687 5685 5684 5683 5682 5681 5680 5678 5677 5676 5675 5673 5672 5671 5670 5669 5667 5666 5664 5663 5663 5664 5664 5664 5665 5664
5665 5660 5663 5674 5682 5685 5679 5670 5679 5679 5679 5680 5681 5680 5680 5682 5681 5680 5678 5676 5675 5674 5673 5670 5670 5669 5667 5667 5666 5664 5663 5662 5661 5660 5658 5657 5656 5655 5656 5656 5656 5657 5657 5657
5656 5656 5664 5665 5672 5673 5659 5661 5669 5671 5670 5671 5670 5671 5671 5671 5670 5669 5668 5666 5665 5664 5662 5661 5660 5658 5657 5656 5655 5655 5654 5653 5652 5651 5650 5650 5649 5648 5648 5649 5649 5649 5649 5649
5649 5646 5649 5656 5659 5654 5652 5657 5660 5661 5661 5661 5661 5661 5661 5660 5659 5658 5657 5656 5655 5653 5651 5650 5649 5648 5647 5646 5646 5646 5645 5644 5643 5642 5642 5643 5641 5641 5641 5640 5641 5641 5640 5641
5645 5643 5643 5647 5646 5645 5647 5646 5649 5652 5653 5652 5650 5650 5651 5650 5649 5648 5647 5646 5645 5643 5641 5639 5639 5638 5637 5637 5637 5637 5636 5635 5634 5633 5632 5633 5632 5633 5633 5633 5634 5634 5634 5634
5634 5637 5636 5636 5637 5637 5638 5639 5641 5643 5644 5643 5641 5641 5640 5639 5638 5637 5636 5635 5634 5633 5631 5630 5629 5629 5628 5628 5628 5628 5627 5626 5625 5624 5624 5624 5624 5626 5626 5626 5626 5627 5627 5626
5625 5627 5628 5628 5628 5628 5629 5631 5632 5633 5634 5634 5633 5631 5630 5628 5627 5626 5625 5624 5624 5623 5621 5621 5620 5620 5620 5619 5618 5618 5618 5617 5616 5616 5616 5615 5616 5615 5616 5616 5615 5615 5618 5618
5619 5619 5618 5618 5620 5621 5620 5621 5622 5622 5622 5623 5623 5622 5620 5618 5617 5616 5616 5615 5614 5614 5614 5614 5613 5612 5612 5612 5611 5610 5610 5609 5610 5610 5609 5609 5608 5608 5605 5605 5604 5603 5603 5604
5610 5612 5611 5611 5611 5612 5612 5612 5612 5612 5611 5611 5612 5612 5610 5609 5608 5607 5606 5607 5606 5606 5607 5606 5605 5605 5604 5604 5603 5602 5602 5602 5602 5602 5601 5601 5600 5600 5600 5598 5595 5594 5594 5595
5601 5599 5599 5601 5602 5602 5603 5603 5603 5603 5603 5603 5602 5602 5601 5600 5599 5598 5598 5598 5598 5599 5599 5599 5598 5597 5597 5596 5595 5594 5594 5593 5592 5593 5592 5592 5591 5592 5593 5593 5593 5593 5589 5587
5591 5592 5592 5593 5594 5593 5593 5593 5593 5593 5593 5593 5593 5593 5592 5591 5591 5591 5591 5591 5591 5591 5591 5592 5591 5590 5589 5589 5588 5587 5587 5587 5585 5585 5585 5584 5584 5585 5585 5585 5586 5587 5587 5584
5585 5585 5585 5585 5585 5585 5584 5584 5584 5584 5584 5584 5584 5584 5584 5584 5584 5583 5583 5583 5582 5583 5583 5584 5583 5583 5583 5582 5580 5580 5579 5576 5575 5578 5578 5579 5578 5578 5579 5579 5579 5580 5580 5580
5577 5577 5577 5577 5578 5578 5578 5577 5577 5577 5578 5577 5578 5577 5577 5576 5576 5575 5575 5575 5575 5575 5575 5575 5575 5576 5575 5574 5573 5574 5575 5574 5568 5571 5572 5573 5573 5572 5572 5572 5573 5573 5572 5571
5573 5573 5573 5573 5572 5572 5571 5572 5572 5572 5572 5573 5572 5570 5570 5570 5569 5569 5569 5569 5568 5566 5566 5567 5567 5567 5567 5567 5566 5568 5569 5569 5568 5567 5567 5567 5566 5566 5566 5566 5566 5566 5565 5564
5569 5568 5568 5567 5567 5566 5565 5566 5566 5566 5566 5566 5565 5564 5563 5563 5563 5562 5562 5561 5561 5560 5560 5559 5556 5558 5559 5560 5558 5560 5562 5563 5563 5562 5561 5559 5559 5560 5560 5559 5559 5558 5558 5557
5563 5563 5562 5561 5561 5560 5559 5559 5559 5559 5559 5559 5558 5557 5556 5555 5555 5554 5554 5554 5555 5555 5554 5552 5552 5552 5553 5553 5550 5555 5557 5557 5557 5556 5556 5555 5554 5554 5553 5552 5552 5551 5551 5551
5557 5556 5556 5555 5554 5553 5553 5553 5553 5553 5553 5552 5551 5550 5549 5548 5547 5546 5546 5546 5545 5545 5545 5543 5545 5546 5547 5546 5543 5548 5550 5550 5550 5550 5549 5549 5548 5547 5546 5545 5545 5544 5544 5544
5552 5551 5549 5548 5547 5547 5547 5547 5547 5546 5546 5545 5544 5543 5542 5541 5540 5539 5538 5538 5538 5535 5537 5540 5541 5538 5538 5536 5540 5542 5543 5543 5543 5543 5542 5541 5541 5540 5540 5539 5538 5537 5537 5537
5546 5545 5544 5542 5542 5541 5540 5540 5539 5538 5538 5537 5536 5535 5535 5534 5534 5534 5533 5533 5532 5528 5529 5531 5530 5528 5525 5529 5533 5535 5536 5536 5536 5536 5535 5534 5534 5534 5533 5532 5532 5531 5531 5531
5539 5538 5537 5536 5536 5535 5533 5533 5532 5531 5530 5530 5530 5529 5528 5528 5528 5528 5526 5523 5521 5520 5523 5522 5520 5519 5518 5524 5527 5528 5529 5529 5529 5529 5529 5529 5529 5528 5527 5527 5526 5526 5525 5525
5533 5532 5531 5530 5529 5529 5528 5527 5526 5525 5525 5525 5524 5524 5523 5523 5522 5522 5520 5519 5516 5515 5518 5518 5515 5513 5515 5519 5520 5521 5521 5522 5523 5523 5522 5522 5522 5522 5522 5521 5520 5520 5520 5519
5527 5527 5526 5524 5523 5522 5523 5522 5521 5521 5520 5519 5519 5518 5518 5517 5516 5515 5514 5514 5513 5510 5512 5514 5514 5512 5514 5514 5515 5515 5515 5515 5516 5517 5517 5517 5517 5517 5516 5516 5515 5514 5514 5513
5523 5522 5520 5520 5519 5517 5517 5516 5515 5515 5514 5513 5512 5511 5511 5510 5510 5510 5509 5509 5509 5509 5509 5509 5509 5509 5510 5510 5509 5509 5509 5510 5511 5511 5511 5512 5512 5512 5511 5509 5509 5508 5507 5507